Hourly Data Report for October 11, 2013

All times are specified in Local Standard Time (LST). Add 1 hour to adjust for Daylight Saving Time where and when it is observed.

PENTICTON A
BRITISH COLUMBIA

49°27'45.000" N
119°36'08.000" W
344.40 m
1126146
71889
YYF

Download Data

Hourly Data (October 2013)
Hourly Data Report for October 11, 2013
Temp Definition
°C
Dew Point Temp Definition
°C
Rel Hum Definition
%
Wind Dir Definition
10's deg

Wind Spd Definition
km/h
Visibility Definition
km
Stn Press Definition
kPa
Hmdx Definition


Wind Chill Definition


Weather Definition


TIME
00:00 Legend Double Dagger 0.6 -1.8 84 3 3 24.1 97.73     LegendNANA
01:00 Legend Double Dagger -0.1 -2.6 83 35 4 24.1 97.76   -1 Clear
02:00 Legend Double Dagger 0.9 -1.7 83 36 1 24.1 97.81     LegendNANA
03:00 Legend Double Dagger -2.2 -3.6 90 1 6 24.1 97.88   -5 LegendNANA
04:00 Legend Double Dagger -1.3 -2.6 91 LegendMM LegendMM 24.1 97.93     Clear
05:00 Legend Double Dagger -1.6 -2.9 91 7 3 24.1 97.96   -3 LegendNANA
06:00 Legend Double Dagger -2.3 -4.0 88 1 8 24.1 97.98   -5 LegendNANA
07:00 Legend Double Dagger -2.2 -4.7 83 2 3 24.1 98.01   -3 Mainly Clear
08:00 Legend Double Dagger 3.5 -0.2 77 27 2 24.1 98.06     LegendNANA
09:00 Legend Double Dagger 6.4 0.9 68 6 4 24.1 98.05     LegendNANA
10:00 Legend Double Dagger 8.3 1.5 62 8 5 24.1 98.00     Mostly Cloudy
11:00 Legend Double Dagger 9.8 2.0 58 36 7 24.1 97.94     LegendNANA
12:00 Legend Double Dagger 11.0 1.8 53 35 7 24.1 97.89     LegendNANA
13:00 Legend Double Dagger 11.7 3.0 55 36 10 24.1 97.83     Mostly Cloudy
14:00 Legend Double Dagger 11.4 2.5 54 34 6 24.1 97.77     LegendNANA
15:00 Legend Double Dagger 11.7 3.0 55 35 13 24.1 97.75     LegendNANA
16:00 Legend Double Dagger 10.6 3.4 61 36 10 24.1 97.75     Mostly Cloudy
17:00 Legend Double Dagger 9.6 3.6 66 36 10 24.1 97.73     LegendNANA
18:00 Legend Double Dagger 8.9 3.8 70 33 7 24.1 97.74     LegendNANA
19:00 Legend Double Dagger 7.6 3.7 76 32 2 24.1 97.72     Mostly Cloudy
20:00 Legend Double Dagger 7.0 3.3 77 35 3 24.1 97.73     LegendNANA
21:00 Legend Double Dagger 6.4 3.0 79 35 4 24.1 97.74     LegendNANA
22:00 Legend Double Dagger 6.3 2.6 77 36 2 24.1 97.74     Cloudy
23:00 Legend Double Dagger 7.2 2.9 74 1 10 24.1 97.75     LegendNANA

Notes on Data Quality.

Legend

  • E = Estimated
  • M = Missing
  • NA = Not Available
  • ‡ = Partner data that is not subject to review by the National Climate Archives
Date modified: